English version Home page |
Updated on November 12, 2005 |
プロフィール
|
軌道要素Epoch 2003 May 1.0 TT = JDT 2452760.5 T 2003 Apr. 14.99387 TT MPC q 8.8639802 (2000.0) P Q z +0.0002755 Peri. 259.66317 +0.12032441 +0.66998230 +/-0.0000170 Node 50.39301 +0.06705228 +0.73075239 e 0.9975582 Incl. 71.95996 -0.99046758 +0.13086126
|
星図
|
光度変化m1 = 4.0 + 5 logΔ + 10.0 log r
|
軌道要素はM.P.E.C. 2005-B40に掲載されたものです。
|